Regional Weather Roundup
Issued by NWS

Home | Current Version | Previous Version | Text Only | Print | Product List | Glossary On
Versions: 1 2 3 4 5 6 7 8 9 10 11 12 13 14 15 16 17 18 19 20 21 22 23 24 25 26 27 28 29 30 31 32 33 34 35 36 37 38 39 40 41 42 43 44 45 46 47 48 49 50
000
ASUS43 KMPX 191501
RWRMN
WEATHER ROUNDUP FOR MINNESOTA
NATIONAL WEATHER SERVICE TWIN CITIES/CHANHASSEN MN
1000 AM CDT FRI SEP 19 2014


NOTE: "FAIR" INDICATES FEW OR NO CLOUDS BELOW 12,000 FEET WITH NO
SIGNIFICANT WEATHER AND/OR OBSTRUCTIONS TO VISIBILITY. N/A MEANS
CURRENT SKY AND/OR WEATHER CONDITIONS ARE NOT AVAILABLE.

MNZ060>063-068>070-191600-
   Twin Cities Metro

CITY           SKY/WX    TMP DP  RH WIND       PRES   REMARKS
TWIN CITIES    CLOUDY    63  54  72 S16G26    29.86F
ST PAUL        CLOUDY    62  54  74 S14       29.87F
CRYSTAL        CLOUDY    64  53  67 S14G23    29.83F
BLAINE         CLOUDY    64  55  72 SE14      29.83
LAKEVILLE      CLOUDY    63  55  77 S14G24    29.86F
EDEN PRAIRIE   CLOUDY    63  55  75 S12G21    29.83F
SOUTH ST PAUL    N/A    N/A N/A N/A MISG        N/A
LAKE ELMO      PTSUNNY   61  54  77 S13G18    29.88F
$$
MNZ001>005-007-008-013>017-022>024-027-028-191600-
   Northwest Minnesota

CITY           SKY/WX    TMP DP  RH WIND       PRES   REMARKS
BEMIDJI        RAIN      58  56  94 S16G23    29.64R
HALLOCK        CLOUDY    63  61  94 S15       29.48F
ROSEAU         CLOUDY    63  57  82 S12       29.54F
WARROAD        LGT RAIN  63  57  82 S8G16     29.54F
THIEF RVR FALL CLOUDY    63  57  82 S20G30    29.57S
CROOKSTON      CLOUDY    63  57  82 S21       29.57F
FOSSTON        LGT RAIN  59  55  88 S23G31    29.62R
DETROIT LAKES  CLOUDY    63  57  82 S12G22    29.68F
MOORHEAD       CLOUDY    64  63  94 SW12G22   29.65R
PARK RAPIDS    CLOUDY    60  57  89 S14       29.70F
MAHNOMEN       DRIZZLE   59  57  92 S16G22    29.62F
$$
MNZ006-009>011-018-025>026-191600-
   North Central Minnesota

CITY           SKY/WX    TMP DP  RH WIND       PRES   REMARKS
BAUDETTE       HVY RAIN  59  57  93 S8        29.56F FOG
FLAG ISLAND    CLOUDY    57  57 100 S10       29.51F
INTL FALLS     CLOUDY    60  54  80 S8G20     29.61F
WASKISH        CLOUDY    63  55  77 S3G17     29.58F
BIG FORK       CLOUDY    61  55  82 S15G24    29.66F
LONGVILLE      DRIZZLE   57  57 100 S9        29.72R
GRAND RAPIDS   CLOUDY    57  54  88 S17G25    29.69F
CRANE LAKE     CLOUDY    59  54  82 S12G18    29.67F
ORR            CLOUDY    59  52  77 S17G24    29.64F
COOK           CLOUDY    61  54  77 S10G22    29.70F
WALKER         CLOUDY    58  56  91 S12G23    29.69R
$$
MNZ012-019>021-037-191600-
   Northeast Minnesota

CITY           SKY/WX    TMP DP  RH WIND       PRES   REMARKS
DULUTH         CLOUDY    60  52  74 S15G25    29.79F
ELY            CLOUDY    57  52  82 S13G21    29.73F
HIBBING        CLOUDY    60  53  77 S13G20    29.73F
EVELETH        CLOUDY    59  52  77 S15G23    29.75F
DULUTH HARBOR  CLOUDY    63  54  72 S20       29.80F
TWO HARBORS    PTSUNNY   57  52  82 SW13G18   29.79F
SILVER BAY     CLOUDY    55  54  94 S13       29.79F
GRAND MARAIS     N/A     54  50  86 VRB3      29.82F
G MARAIS ARPRT CLOUDY    50  48  93 S9G17     29.82F FOG
$$
MNZ029>031-032-039>041-046>048-054>057-064-191600-
   West Central Minnesota

CITY           SKY/WX    TMP DP  RH WIND       PRES   REMARKS
FERGUS FALLS   CLOUDY    63  55  77 S15       29.69F
WHEATON        CLOUDY    61  57  88 SE8       29.71S
MORRIS         CLOUDY    64  57  77 S12       29.71S
ALEXANDRIA     CLOUDY    62  58  86 S13G23    29.74R
ELBOW LAKE     CLOUDY    62  58  87 S15G21    29.72S
WADENA         CLOUDY    61  55  82 SW10      29.72F
GLENWOOD       CLOUDY    63  57  82 S15G21    29.75R
APPLETON       CLOUDY    66  61  82 S9        29.71R
BENSON         CLOUDY    64  59  82 SW12      29.73R
ORTONVILLE     CLOUDY    64  59  82 S5        29.71S
MADISON        CLOUDY    70  63  78 SW13G20   29.72R
WILLMAR        CLOUDY    64  57  77 S16       29.75F
$$
MNZ033>034-036-042>043-049>051-058-059-191600-
   Central Minnesota

CITY           SKY/WX    TMP DP  RH WIND       PRES   REMARKS
ST CLOUD       CLOUDY    63  56  78 S20       29.78F
SAUK CENTRE    CLOUDY    61  57  87 S16G23    29.75F
PAYNESVILLE    CLOUDY    59  56  91 E15       29.75F
AITKIN         MIX PCPN  61  55  82 S9G17     29.71F
PINE RIVER     CLOUDY    59  55  88 S8        29.76R
BRAINERD       CLOUDY    58  55  90 S16G23    29.72F FOG
STAPLES        CLOUDY    59  55  88 SW9       29.75R
LONG PRAIRIE   CLOUDY    59  55  88 S14G22    29.74S
LITTLE FALLS   CLOUDY    59  54  82 SE14      29.74F
LITCHFIELD     CLOUDY    63  59  88 SE9       29.79F
BUFFALO        CLOUDY    62  55  79 S8G17     29.82F
MAPLE LAKE     CLOUDY    62  58  87 SE9G17    29.80F
$$
MNZ037-044-045-052-053-191600-
   East Central Minnesota

CITY           SKY/WX    TMP DP  RH WIND       PRES   REMARKS
PRINCETON      CLOUDY    63  57  82 S14       29.82F
MORA           CLOUDY    59  52  77 S14       29.82F
CAMBRIDGE      CLOUDY    64  52  63 S14G23    29.81F
RUSH CITY      CLOUDY    61  52  72 S13G21    29.84F
MOOSE LAKE     CLOUDY    59  52  77 S10G18    29.77F
HINCKLEY       CLOUDY    59  54  82 S15G21    29.82F
CLOQUET        CLOUDY    59  52  77 S12G21    29.79F
MCGREGOR       CLOUDY    59  54  82 S15       29.77F
$$
MNZ071>073-080-081-089-090-097-098-191600-
   Southwest Minnesota

CITY           SKY/WX    TMP DP  RH WIND       PRES   REMARKS
MONTEVIDEO     CLOUDY    64  61  88 SW12G20   29.72F
GRANITE FALLS  CLOUDY    65  60  86 S14G24    29.74F
CANBY          CLOUDY    66  61  84 S20G30    29.70F
MARSHALL       CLOUDY    66  61  82 S24G32    29.72F
REDWOOD FALLS  CLOUDY    64  60  87 S21       29.77F
OLIVIA         CLOUDY    63  59  88 S14G22    29.75F
PIPESTONE      CLOUDY    63  61  94 S22       29.76F FOG
WINDOM         CLOUDY    63  61  94 S16G23    29.81F FOG
WORTHINGTON    CLOUDY    63  61  94 S16G24    29.82F
JACKSON        CLOUDY    63  59  88 S15G24    29.84F
TRACY          CLOUDY    65  62  90 S21G29    29.75F FOG
SLAYTON        CLOUDY    62  61  96 S18G26    29.79F FOG
$$
MNZ065>067-074>077-082>085-091>093-191600-
   South Central Minnesota

CITY           SKY/WX    TMP DP  RH WIND       PRES   REMARKS
MANKATO        CLOUDY    63  54  72 S16G23    29.84F
NEW ULM        PTSUNNY   63  61  94 S18       29.81F
ST JAMES       CLOUDY    64  57  77 S21G29    29.83F
FAIRMONT       CLOUDY    61  52  72 S18G24    29.85F
GLENCOE        CLOUDY    64  56  76 S10G20    29.81F
FARIBAULT      CLOUDY    64  52  63 S14G22    29.88F
OWATONNA       CLOUDY    63  54  72 S16G24    29.90F
WASECA         CLOUDY    61  50  67 S18G30    29.90F
ALBERT LEA     CLOUDY    63  55  77 S13G22    29.91F
$$
MNZ078>079-086>088-094>096-191600-
   Southeast Minnesota

CITY           SKY/WX    TMP DP  RH WIND       PRES   REMARKS
ROCHESTER      MOSUNNY   63  53  70 S14G26    29.95F
RED WING       MOSUNNY   64  52  63 SE8       29.91F
STANTON        CLOUDY    64  55  70 S9        29.88F
DODGE CENTER   PTSUNNY   63  54  72 S25G32    29.93F
WINONA         SUNNY     63  52  67 S6        29.98S
AUSTIN         PTSUNNY   61  54  77 S17G24    29.94F
PRESTON        SUNNY     61  56  83 S16G25    29.98F
$$
ABBREVIATIONS USED IN REMARKS
   TC - TEMPERATURES IN CELSIUS
  WCI - WIND CHILL INDEX
   HX - HEAT INDEX
  VSB - VISIBILITY
$$


USA.gov is the U.S. government's official web portal to all federal, state and local government web resources and services.